Location: Newark
(54.8972°N, 99.8189°W)
Time: 14:00:39
(UTC+00:00)

ISS - Visible Passes

Search period start: 23 September 2019 00:00
Search period end: 03 October 2019 00:00
Orbit: 411 x 421 km, 51.6° (Epoch: 23 September)

Date Brightness Start Highest point End Pass type
(mag) Time Alt. Az. Time Alt. Az. Time Alt. Az.
23 Sep -2.0 01:34:48 10° S 01:37:03 17° SSE 01:38:33 13° ESE visible
23 Sep -1.8 03:10:05 10° WSW 03:11:27 21° SW 03:11:27 21° SW visible
24 Sep -3.0 02:21:50 10° SW 02:24:53 34° SSE 02:25:03 34° SSE visible
25 Sep -2.6 01:33:39 10° SW 01:36:32 27° SSE 01:38:33 16° ESE visible
25 Sep -2.1 03:09:40 10° WSW 03:11:26 27° WSW 03:11:26 27° WSW visible
26 Sep -3.4 02:21:18 10° WSW 02:24:30 44° S 02:24:51 42° SSE visible
27 Sep -3.1 01:32:57 10° WSW 01:36:05 39° SSE 01:38:13 17° ESE visible
27 Sep -2.0 03:09:19 10° W 03:11:06 27° WSW 03:11:06 27° WSW visible
28 Sep -3.4 02:20:52 10° WSW 02:24:06 48° S 02:24:26 46° SSE visible
29 Sep -3.3 01:32:26 10° WSW 01:35:39 47° S 01:37:43 19° ESE visible
29 Sep -1.7 03:09:00 10° W 03:10:37 23° WSW 03:10:37 23° WSW visible
30 Sep -3.2 02:20:29 10° W 02:23:39 41° S 02:23:53 41° S visible
01 Oct -3.2 01:31:59 10° W 01:35:11 46° S 01:37:10 20° ESE visible
01 Oct -1.4 03:08:45 10° W 03:10:03 18° WSW 03:10:03 18° WSW visible
02 Oct -2.6 02:20:08 10° W 02:23:06 30° SSW 02:23:20 30° SSW visible
